Time,TemperatureF,DewpointF,PressureIn,WindDirection,WindDirectionDegrees,WindSpeedMPH,WindSpeedGustMPH,Humidity,HourlyPrecipIn,Conditions,Clouds,dailyrainin,SoftwareType,DateUTC
2013-05-12 00:02:00,39.0,29.0,-100.00,NNW,330,6.0,9.0,67,0.00,,,-99.99,,2013-05-12 05:02:00,
2013-05-12 00:12:00,39.0,29.0,-100.00,NNW,330,6.0,9.0,67,0.00,,,-99.99,,2013-05-12 05:12:00,
2013-05-12 00:22:00,39.0,28.0,-100.00,NW,325,6.0,9.0,64,0.00,,,-99.99,,2013-05-12 05:22:00,
2013-05-12 00:32:00,39.0,28.0,-100.00,NW,325,6.0,9.0,64,0.00,,,-99.99,,2013-05-12 05:32:00,
2013-05-12 00:42:00,38.0,28.0,-100.00,NW,325,8.0,11.0,65,0.00,,,-99.99,,2013-05-12 05:42:00,
2013-05-12 00:52:00,38.0,28.0,-100.00,NNW,330,7.0,11.0,66,0.00,,,-99.99,,2013-05-12 05:52:00,
2013-05-12 01:01:00,38.0,28.0,-100.00,NNW,330,7.0,11.0,66,0.00,,,-99.99,,2013-05-12 06:01:00,
2013-05-12 01:11:00,39.0,28.0,-100.00,North,350,6.0,9.0,64,0.00,,,-99.99,,2013-05-12 06:11:00,
2013-05-12 01:21:00,40.0,27.0,-100.00,North,0,5.0,10.0,61,0.00,,,-99.99,,2013-05-12 06:21:00,
2013-05-12 01:32:00,40.0,27.0,-100.00,North,350,5.0,11.0,60,0.00,,,-99.99,,2013-05-12 06:32:00,
2013-05-12 01:42:00,39.0,27.0,-100.00,North,0,6.0,9.0,61,0.00,,,-99.99,,2013-05-12 06:42:00,
2013-05-12 01:51:00,38.0,27.0,-100.00,NNW,335,4.0,9.0,62,0.00,,,-99.99,,2013-05-12 06:51:00,
2013-05-12 02:01:00,38.0,27.0,-100.00,NNW,335,4.0,9.0,62,0.00,,,-99.99,,2013-05-12 07:01:00,
2013-05-12 02:11:00,38.0,27.0,-100.00,NNW,335,4.0,9.0,62,0.00,,,-99.99,,2013-05-12 07:11:00,
2013-05-12 02:21:00,38.0,27.0,-100.00,NNW,335,4.0,9.0,62,0.00,,,-99.99,,2013-05-12 07:21:00,
2013-05-12 02:32:00,33.0,27.0,-100.00,NW,320,4.0,-999.0,76,0.00,,,-99.99,,2013-05-12 07:32:00,
2013-05-12 02:42:00,33.0,27.0,-100.00,NW,315,4.0,6.0,78,0.00,,,-99.99,,2013-05-12 07:42:00,
2013-05-12 02:52:00,32.0,27.0,-100.00,NW,315,6.0,7.0,79,0.00,,,-99.99,,2013-05-12 07:52:00,
2013-05-12 03:02:00,32.0,27.0,-100.00,NW,315,4.0,7.0,80,0.00,,,-99.99,,2013-05-12 08:02:00,
2013-05-12 03:11:00,32.0,27.0,-100.00,NW,325,5.0,6.0,82,0.00,,,-99.99,,2013-05-12 08:11:00,
2013-05-12 03:21:00,32.0,27.0,-100.00,NW,325,5.0,6.0,82,0.00,,,-99.99,,2013-05-12 08:21:00,
2013-05-12 03:32:00,32.0,28.0,-100.00,NW,325,4.0,6.0,83,0.00,,,-99.99,,2013-05-12 08:32:00,
2013-05-12 03:41:00,31.0,27.0,-100.00,NW,320,4.0,6.0,83,0.00,,,-99.99,,2013-05-12 08:41:00,
2013-05-12 03:52:00,31.0,27.0,-100.00,NW,325,4.0,4.0,84,0.00,,,-99.99,,2013-05-12 08:52:00,
2013-05-12 04:01:00,31.0,27.0,-100.00,NW,315,4.0,5.0,85,0.00,,,-99.99,,2013-05-12 09:01:00,
2013-05-12 04:11:00,31.0,27.0,-100.00,NNW,330,4.0,6.0,86,0.00,,,-99.99,,2013-05-12 09:11:00,
2013-05-12 04:21:00,31.0,27.0,-100.00,NW,320,6.0,7.0,86,0.00,,,-99.99,,2013-05-12 09:21:00,
2013-05-12 04:33:00,30.0,27.0,-100.00,NW,320,5.0,6.0,86,0.00,,,-99.99,,2013-05-12 09:33:00,
2013-05-12 04:42:00,30.0,27.0,-100.00,NW,320,6.0,6.0,87,0.00,,,-99.99,,2013-05-12 09:42:00,
2013-05-12 04:52:00,31.0,27.0,-100.00,NW,315,4.0,6.0,87,0.00,,,-99.99,,2013-05-12 09:52:00,
2013-05-12 05:03:00,31.0,27.0,-100.00,NW,315,4.0,6.0,87,0.00,,,-99.99,,2013-05-12 10:03:00,
2013-05-12 05:12:00,30.0,27.0,-100.00,NW,315,6.0,7.0,88,0.00,,,-99.99,,2013-05-12 10:12:00,
2013-05-12 05:22:00,30.0,27.0,-100.00,NW,320,4.0,7.0,88,0.00,,,-99.99,,2013-05-12 10:22:00,
2013-05-12 05:33:00,30.0,27.0,-100.00,NW,320,4.0,5.0,88,0.00,,,-99.99,,2013-05-12 10:33:00,
2013-05-12 05:42:00,30.0,27.0,-100.00,NW,320,4.0,6.0,89,0.00,,,-99.99,,2013-05-12 10:42:00,
2013-05-12 05:52:00,29.0,27.0,-100.00,NW,320,4.0,5.0,89,0.00,,,-99.99,,2013-05-12 10:52:00,
2013-05-12 06:02:00,29.0,26.0,-100.00,NW,315,4.0,6.0,89,0.00,,,-99.99,,2013-05-12 11:02:00,
2013-05-12 06:12:00,29.0,27.0,-100.00,NW,310,4.0,6.0,90,0.00,,,-99.99,,2013-05-12 11:12:00,
2013-05-12 06:21:00,29.0,27.0,-100.00,NW,310,4.0,6.0,90,0.00,,,-99.99,,2013-05-12 11:21:00,
2013-05-12 06:32:00,29.0,27.0,-100.00,NW,315,6.0,6.0,90,0.00,,,-99.99,,2013-05-12 11:32:00,
2013-05-12 06:42:00,30.0,28.0,-100.00,NW,320,5.0,6.0,90,0.00,,,-99.99,,2013-05-12 11:42:00,
2013-05-12 06:51:00,31.0,29.0,-100.00,NW,315,6.0,7.0,90,0.00,,,-99.99,,2013-05-12 11:51:00,
2013-05-12 07:01:00,32.0,30.0,-100.00,NW,320,6.0,7.0,90,0.00,,,-99.99,,2013-05-12 12:01:00,
2013-05-12 07:11:00,33.0,30.0,-100.00,NW,325,7.0,8.0,88,0.00,,,-99.99,,2013-05-12 12:11:00,
2013-05-12 07:21:00,35.0,31.0,-100.00,NNW,330,6.0,9.0,82,0.00,,,-99.99,,2013-05-12 12:21:00,
2013-05-12 07:32:00,37.0,30.0,-100.00,NW,325,7.0,9.0,76,0.00,,,-99.99,,2013-05-12 12:32:00,
2013-05-12 07:41:00,37.0,30.0,-100.00,NW,325,7.0,9.0,76,0.00,,,-99.99,,2013-05-12 12:41:00,
2013-05-12 07:51:00,39.0,28.0,-100.00,NW,325,7.0,11.0,63,0.00,,,-99.99,,2013-05-12 12:51:00,
2013-05-12 08:01:00,41.0,28.0,-100.00,NW,315,8.0,11.0,61,0.00,,,-99.99,,2013-05-12 13:01:00,
2013-05-12 08:11:00,41.0,28.0,-100.00,NW,315,8.0,11.0,61,0.00,,,-99.99,,2013-05-12 13:11:00,
2013-05-12 08:21:00,41.0,28.0,-100.00,NW,325,12.0,14.0,58,0.00,,,-99.99,,2013-05-12 13:21:00,
2013-05-12 08:32:00,42.0,27.0,-100.00,NW,325,12.0,16.0,55,0.00,,,-99.99,,2013-05-12 13:32:00,
2013-05-12 08:42:00,42.0,26.0,-100.00,NNW,335,10.0,16.0,51,0.00,,,-99.99,,2013-05-12 13:42:00,
2013-05-12 08:52:00,42.0,25.0,-100.00,NW,325,11.0,17.0,48,0.00,,,-99.99,,2013-05-12 13:52:00,
2013-05-12 09:01:00,43.0,24.0,-100.00,North,0,9.0,19.0,47,0.00,,,-99.99,,2013-05-12 14:01:00,
2013-05-12 09:11:00,44.0,24.0,-100.00,NNW,330,10.0,17.0,45,0.00,,,-99.99,,2013-05-12 14:11:00,
2013-05-12 09:21:00,43.0,23.0,-100.00,NNW,330,11.0,21.0,44,0.00,,,-99.99,,2013-05-12 14:21:00,
2013-05-12 09:31:00,44.0,24.0,-100.00,NNW,330,12.0,17.0,44,0.00,,,-99.99,,2013-05-12 14:31:00,
2013-05-12 09:42:00,44.0,24.0,-100.00,NW,320,11.0,16.0,44,0.00,,,-99.99,,2013-05-12 14:42:00,
2013-05-12 09:52:00,44.0,24.0,-100.00,NNW,330,12.0,18.0,44,0.00,,,-99.99,,2013-05-12 14:52:00,
2013-05-12 10:01:00,44.0,23.0,-100.00,North,0,11.0,19.0,42,0.00,,,-99.99,,2013-05-12 15:01:00,
2013-05-12 10:11:00,45.0,24.0,-100.00,NNW,335,13.0,19.0,42,0.00,,,-99.99,,2013-05-12 15:11:00,
2013-05-12 10:21:00,45.0,24.0,-100.00,NNW,335,13.0,19.0,42,0.00,,,-99.99,,2013-05-12 15:21:00,
2013-05-12 10:34:00,46.0,25.0,-100.00,NW,325,11.0,18.0,41,0.00,,,-99.99,,2013-05-12 15:34:00,
2013-05-12 10:42:00,46.0,24.0,-100.00,NNW,335,12.0,18.0,40,0.00,,,-99.99,,2013-05-12 15:42:00,
2013-05-12 10:52:00,47.0,24.0,-100.00,NNW,340,7.0,17.0,40,0.00,,,-99.99,,2013-05-12 15:52:00,
2013-05-12 11:02:00,47.0,24.0,-100.00,NW,310,16.0,21.0,39,0.00,,,-99.99,,2013-05-12 16:02:00,
2013-05-12 11:12:00,48.0,24.0,-100.00,WNW,295,15.0,21.0,39,0.00,,,-99.99,,2013-05-12 16:12:00,
2013-05-12 11:23:00,47.0,23.0,-100.00,NNW,330,14.0,22.0,38,0.00,,,-99.99,,2013-05-12 16:23:00,
2013-05-12 11:33:00,48.0,24.0,-100.00,NW,310,19.0,22.0,38,0.00,,,-99.99,,2013-05-12 16:33:00,
2013-05-12 11:42:00,49.0,24.0,-100.00,NW,310,16.0,22.0,37,0.00,,,-99.99,,2013-05-12 16:42:00,
2013-05-12 11:52:00,48.0,22.0,-100.00,NW,325,14.0,24.0,36,0.00,,,-99.99,,2013-05-12 16:52:00,
2013-05-12 12:02:00,49.0,24.0,-100.00,NW,320,13.0,20.0,36,0.00,,,-99.99,,2013-05-12 17:02:00,
2013-05-12 12:12:00,50.0,24.0,-100.00,NW,305,11.0,22.0,36,0.00,,,-99.99,,2013-05-12 17:12:00,
2013-05-12 12:22:00,50.0,25.0,-100.00,NNW,340,9.0,18.0,37,0.00,,,-99.99,,2013-05-12 17:22:00,
2013-05-12 12:32:00,50.0,25.0,-100.00,NW,315,11.0,19.0,37,0.00,,,-99.99,,2013-05-12 17:32:00,
2013-05-12 12:42:00,50.0,24.0,-100.00,NW,320,11.0,21.0,35,0.00,,,-99.99,,2013-05-12 17:42:00,
2013-05-12 12:52:00,51.0,25.0,-100.00,NW,320,13.0,21.0,35,0.00,,,-99.99,,2013-05-12 17:52:00,
2013-05-12 13:01:00,51.0,24.0,-100.00,NNW,345,11.0,14.0,35,0.00,,,-99.99,,2013-05-12 18:01:00,
2013-05-12 13:12:00,51.0,25.0,-100.00,NW,320,12.0,22.0,35,0.00,,,-99.99,,2013-05-12 18:12:00,
2013-05-12 13:22:00,51.0,25.0,-100.00,North,0,11.0,15.0,35,0.00,,,-99.99,,2013-05-12 18:22:00,
2013-05-12 13:32:00,52.0,24.0,-100.00,NW,320,15.0,21.0,33,0.00,,,-99.99,,2013-05-12 18:32:00,
2013-05-12 13:42:00,53.0,25.0,-100.00,WNW,300,15.0,20.0,32,0.00,,,-99.99,,2013-05-12 18:42:00,
2013-05-12 13:51:00,53.0,25.0,-100.00,WNW,300,15.0,20.0,32,0.00,,,-99.99,,2013-05-12 18:51:00,
2013-05-12 14:01:00,53.0,24.0,-100.00,NW,310,13.0,19.0,31,0.00,,,-99.99,,2013-05-12 19:01:00,
2013-05-12 14:11:00,54.0,25.0,-100.00,NNW,330,12.0,18.0,32,0.00,,,-99.99,,2013-05-12 19:11:00,
2013-05-12 14:21:00,54.0,24.0,-100.00,NW,310,14.0,22.0,31,0.00,,,-99.99,,2013-05-12 19:21:00,
2013-05-12 14:32:00,54.0,25.0,-100.00,NNW,330,12.0,21.0,31,0.00,,,-99.99,,2013-05-12 19:32:00,
2013-05-12 14:42:00,55.0,26.0,-100.00,WNW,290,16.0,21.0,31,0.00,,,-99.99,,2013-05-12 19:42:00,
2013-05-12 14:52:00,56.0,25.0,-100.00,NNW,330,14.0,21.0,30,0.00,,,-99.99,,2013-05-12 19:52:00,
2013-05-12 15:02:00,57.0,26.0,-100.00,NW,320,15.0,21.0,30,0.00,,,-99.99,,2013-05-12 20:02:00,
2013-05-12 15:11:00,56.0,25.0,-100.00,NW,310,18.0,24.0,30,0.00,,,-99.99,,2013-05-12 20:11:00,
2013-05-12 15:21:00,56.0,24.0,-100.00,NW,305,16.0,21.0,28,0.00,,,-99.99,,2013-05-12 20:21:00,
2013-05-12 15:32:00,56.0,24.0,-100.00,NW,320,12.0,22.0,28,0.00,,,-99.99,,2013-05-12 20:32:00,
2013-05-12 15:42:00,56.0,25.0,-100.00,NW,325,13.0,21.0,29,0.00,,,-99.99,,2013-05-12 20:42:00,
2013-05-12 15:51:00,57.0,25.0,-100.00,NW,325,17.0,20.0,29,0.00,,,-99.99,,2013-05-12 20:51:00,
2013-05-12 16:01:00,58.0,25.0,-100.00,WNW,295,12.0,19.0,28,0.00,,,-99.99,,2013-05-12 21:01:00,
2013-05-12 16:11:00,58.0,25.0,-100.00,WNW,295,13.0,19.0,27,0.00,,,-99.99,,2013-05-12 21:11:00,
2013-05-12 16:21:00,57.0,24.0,-100.00,NW,320,13.0,24.0,27,0.00,,,-99.99,,2013-05-12 21:21:00,
2013-05-12 16:33:00,58.0,25.0,-100.00,WNW,295,16.0,26.0,27,0.00,,,-99.99,,2013-05-12 21:33:00,
2013-05-12 16:42:00,58.0,24.0,-100.00,NW,305,9.0,22.0,27,0.00,,,-99.99,,2013-05-12 21:42:00,
2013-05-12 16:52:00,58.0,25.0,-100.00,NW,305,11.0,20.0,27,0.00,,,-99.99,,2013-05-12 21:52:00,
2013-05-12 17:02:00,58.0,24.0,-100.00,WNW,300,17.0,21.0,27,0.00,,,-99.99,,2013-05-12 22:02:00,
2013-05-12 17:12:00,58.0,24.0,-100.00,NW,320,12.0,17.0,26,0.00,,,-99.99,,2013-05-12 22:12:00,
2013-05-12 17:23:00,58.0,24.0,-100.00,NW,310,12.0,21.0,26,0.00,,,-99.99,,2013-05-12 22:23:00,
2013-05-12 17:33:00,58.0,23.0,-100.00,NW,305,15.0,21.0,26,0.00,,,-99.99,,2013-05-12 22:33:00,
2013-05-12 17:42:00,58.0,23.0,-100.00,NW,305,15.0,21.0,26,0.00,,,-99.99,,2013-05-12 22:42:00,
2013-05-12 17:52:00,57.0,23.0,-100.00,NNW,330,14.0,21.0,26,0.00,,,-99.99,,2013-05-12 22:52:00,
2013-05-12 18:02:00,57.0,23.0,-100.00,NNW,330,14.0,21.0,26,0.00,,,-99.99,,2013-05-12 23:02:00,
2013-05-12 18:12:00,57.0,22.0,-100.00,NW,320,17.0,21.0,25,0.00,,,-99.99,,2013-05-12 23:12:00,
2013-05-12 18:22:00,57.0,23.0,-100.00,NW,315,14.0,17.0,25,0.00,,,-99.99,,2013-05-12 23:22:00,
2013-05-12 18:32:00,57.0,23.0,-100.00,NW,315,16.0,19.0,26,0.00,,,-99.99,,2013-05-12 23:32:00,
2013-05-12 18:42:00,57.0,22.0,-100.00,NW,310,10.0,19.0,25,0.00,,,-99.99,,2013-05-12 23:42:00,
2013-05-12 18:52:00,57.0,22.0,-100.00,NW,310,10.0,19.0,25,0.00,,,-99.99,,2013-05-12 23:52:00,
2013-05-12 19:01:00,57.0,22.0,-100.00,NW,320,9.0,17.0,26,0.00,,,-99.99,,2013-05-13 00:01:00,
2013-05-12 19:11:00,57.0,22.0,-100.00,NW,310,11.0,13.0,26,0.00,,,-99.99,,2013-05-13 00:11:00,
2013-05-12 19:21:00,56.0,22.0,-100.00,NW,310,11.0,16.0,26,0.00,,,-99.99,,2013-05-13 00:21:00,
2013-05-12 19:32:00,56.0,22.0,-100.00,NW,310,11.0,16.0,26,0.00,,,-99.99,,2013-05-13 00:32:00,
2013-05-12 19:42:00,55.0,22.0,-100.00,NW,320,12.0,15.0,27,0.00,,,-99.99,,2013-05-13 00:42:00,
2013-05-12 19:51:00,55.0,22.0,-100.00,North,0,5.0,9.0,27,0.00,,,-99.99,,2013-05-13 00:51:00,
2013-05-12 20:01:00,54.0,21.0,-100.00,NNW,335,6.0,11.0,26,0.00,,,-99.99,,2013-05-13 01:01:00,
2013-05-12 20:11:00,54.0,20.0,-100.00,NNW,340,4.0,7.0,26,0.00,,,-99.99,,2013-05-13 01:11:00,
2013-05-12 20:22:00,53.0,20.0,-100.00,NNW,340,2.0,7.0,27,0.00,,,-99.99,,2013-05-13 01:22:00,
2013-05-12 20:31:00,53.0,20.0,-100.00,NNW,340,2.0,7.0,27,0.00,,,-99.99,,2013-05-13 01:31:00,
2013-05-12 20:42:00,52.0,20.0,-100.00,North,0,2.0,4.0,28,0.00,,,-99.99,,2013-05-13 01:42:00,
2013-05-12 20:52:00,52.0,20.0,-100.00,North,0,2.0,4.0,28,0.00,,,-99.99,,2013-05-13 01:52:00,
2013-05-12 21:01:00,48.0,21.0,-100.00,North,0,0.0,0.0,33,0.00,,,-99.99,,2013-05-13 02:01:00,
2013-05-12 21:11:00,46.0,22.0,-100.00,NW,310,1.0,1.0,37,0.00,,,-99.99,,2013-05-13 02:11:00,
2013-05-12 21:21:00,44.0,22.0,-100.00,NW,315,0.0,1.0,41,0.00,,,-99.99,,2013-05-13 02:21:00,
2013-05-12 21:32:00,44.0,22.0,-100.00,NW,315,0.0,1.0,41,0.00,,,-99.99,,2013-05-13 02:32:00,
2013-05-12 21:41:00,43.0,26.0,-100.00,WNW,290,0.0,0.0,49,0.00,,,-99.99,,2013-05-13 02:41:00,
2013-05-12 21:51:00,42.0,26.0,-100.00,WNW,290,0.0,0.0,53,0.00,,,-99.99,,2013-05-13 02:51:00,
2013-05-12 22:02:00,41.0,27.0,-100.00,WNW,290,0.0,0.0,55,0.00,,,-99.99,,2013-05-13 03:02:00,
2013-05-12 22:11:00,41.0,28.0,-100.00,WNW,300,0.0,0.0,58,0.00,,,-99.99,,2013-05-13 03:11:00,
2013-05-12 22:21:00,40.0,28.0,-100.00,WNW,300,0.0,0.0,61,0.00,,,-99.99,,2013-05-13 03:21:00,
2013-05-12 22:32:00,40.0,29.0,-100.00,WNW,300,0.0,0.0,65,0.00,,,-99.99,,2013-05-13 03:32:00,
2013-05-12 22:42:00,40.0,29.0,-100.00,WNW,300,0.0,0.0,65,0.00,,,-99.99,,2013-05-13 03:42:00,
2013-05-12 22:52:00,39.0,31.0,-100.00,WNW,300,0.0,0.0,72,0.00,,,-99.99,,2013-05-13 03:52:00,
2013-05-12 23:02:00,39.0,31.0,-100.00,NNE,20,0.0,0.0,74,0.00,,,-99.99,,2013-05-13 04:02:00,
2013-05-12 23:12:00,38.0,31.0,-100.00,NNE,20,0.0,0.0,75,0.00,,,-99.99,,2013-05-13 04:12:00,
2013-05-12 23:23:00,38.0,31.0,-100.00,NNE,20,0.0,0.0,76,0.00,,,-99.99,,2013-05-13 04:23:00,
2013-05-12 23:32:00,37.0,31.0,-100.00,NNE,20,0.0,0.0,79,0.00,,,-99.99,,2013-05-13 04:32:00,
2013-05-12 23:42:00,37.0,31.0,-100.00,NNE,20,0.0,0.0,80,0.00,,,-99.99,,2013-05-13 04:42:00,
2013-05-12 23:52:00,36.0,31.0,-100.00,NNE,20,0.0,0.0,82,0.00,,,-99.99,,2013-05-13 04:52:00,